Showing default

ZHUHAI-1 03A, 44534

Orbit data source: Space-Track

ZHUHAI-1 03A, 44534 is a payload satellite owned by Zhuhai Orbita (CN) in LEO that was launched on Thu, 19 Sep 2019 UTC via a CHANG ZHENG 11 launch vehicle from the Jiuquan Satellite Launch Center, China (JSC). Payloads include a variety of satellites, spacecraft, and rockets equipped with specific instruments for various scientific and technological missions. These include communications satellites like Starlink; space stations such as the ISS; scientific satellites like the Hubble; Earth observation satellites from companies like Planet Labs, Umbra, and HawkEye 360; GPS; miniature CubeSats for education and research; and military/defense satellites.

Loading next visibility...
ZHUHAI-1 03A details
Identifier
44534, 2019-060A
Orbit
LEO
Last TLE update8 hours ago
Origin
Flag of CNZhuhai Orbita (CN / PRC)
ManufacturerHarbin
MissionOperational Commercial Imaging
Bus & MotorOHS-1, Unknown motor
Mass69 kg wet, ~69 kg dry
Launch date (UTC)
2019-09-19 (5 years ago)
Launch vehicle
CHANG ZHENG 11
Launch site
Jiuquan Satellite Launch Center, China (JSC)
Object type
Payload
Rocket body
Debris
Shape & HBRBox, Unknown HBR
Radar Cross Section0.280 m², Medium (>0.1 m² and < 1m²)

Expand to show TLE details & history

TLE from 8 hours ago
0 ZHUHAI-1 03A
1 44534U 19060A   24346.63511265  .00048982  00000-0  11286-2 0  9995
2 44534  97.5060 117.8301 0010563 113.4986 246.7372 15.42388620291290
Epoch: 2024-12-11T15:14Z
Definitive object data (Epoch: 2024-12-11T15:14:33.732Z)
Latitude-0.00006°
Longitude168.36259°
Altitude445.031 km
Speed7.643 km/s
True Right ascension07h 51m 19s
True Declination0° 00' 00"
Sunlit
Object was in full shadow at TLE epoch
Visualization TLE readout
Latitude11.68493°
Longitude167.14582°
Altitude442.626 km
Speed7.647 km/s
Apparent Right ascension08h 29m 38s
Apparent Declination-13° 25' 49"
Sunlit
Object is in full shadow
Visualization observer readout
Local Sidereal Time21:28:49
Azimuth30.293° NE
Elevation-60.493°
Doppler factor1
Orbital elements
Apogee altitude443.2 km
Perigee altitude428.805 km
Semi-major axis6,814.139 km
Eccentricity0.0010563
Inclination97.506°
RAAN117.8301°
Arg. of periapsis113.4986°
True anomaly246.62606°
Mean anomaly246.7372°
Eccentric anomaly246.68162°
Mean motion3.85857 °/min
BSTAR0.0011286
Orbital period93.3 mins
Loading maneuver chart data...
Loading historical data...
Loading historical data...
Loading historical data...
Loading historical data...
Loading historical data...
Loading historical data...
Loading historical data...

ZHUHAI-1 03A Visibility forecast

Observer location: undefined°, undefined

Span
Click to sort rows by Start time (UTC) header in descending order
Start Az.
Max El. time (UTC)
Max El. Az.
Max El.
End time (UTC)
End Az.
5 mins2024-12-12 08:30:42.621Z130.103° SE2024-12-12 08:32:42.621Z84.155° E26.742°2024-12-12 08:35:42.621Z11.021° NNE
4 mins2024-12-12 21:24:42.621Z56.127° ENE2024-12-12 21:25:42.621Z88.823° E28.031°2024-12-12 21:28:42.621Z162.563° S
|